Regional Weather Roundup
Issued by NWS

Home | Current Version | Previous Version | Text Only | Print | Product List | Glossary Off
Versions: 1 2 3 4 5 6 7 8 9 10 11 12 13 14 15 16 17 18 19 20 21 22 23 24 25 26 27 28 29 30 31 32 33 34 35 36 37 38 39 40 41 42 43 44 45 46 47 48 49 50

000
ASUS43 KDMX 081608
RWRIA

WEATHER ROUNDUP FOR IOWA
NATIONAL WEATHER SERVICE DES MOINES IA
1000 AM CST MON FEB 08 2016

NOTE: "FAIR" INDICATES FEW OR NO CLOUDS BELOW 12,000 FEET WITH NO
SIGNIFICANT WEATHER AND/OR OBSTRUCTIONS TO VISIBILITY.

* - THESE STATIONS ARE NOT NWS STATIONS...THUS NOT UNDER NWS
QUALITY CONTROL.  THEY ALSO DO NOT REPORT WEATHER SUCH
AS PRECIPITATION OR FOG.

IAZ001>003-012>014-020>022-031>034-043>046-081700-
   NORTHWEST IOWA

CITY           SKY/WX    TMP DP  RH WIND       PRES   REMARKS
CARROLL *      SNOW      18  16  93 NW28G40   30.00R VSB 1/2 WCI  -1
CHEROKEE *     CLOUDY    18  12  79 N23G33    30.04R HAZE    WCI   0
DENISON *      LGT SNOW  19  14  79 N29G43    30.01R WCI   1
LE MARS *      FLURRIES  21  19  93 N22G30    30.10R WCI   5
ORANGE CITY *    N/A     19  18  93 N21G30    30.05  WCI   3
SHELDON *      SNOW      18  14  86 NW31G43   30.03R VSB 1/2 WCI  -2
SIOUX CITY     LGT SNOW  25  16  68 N35G48    30.07R WCI   7
SPENCER        HVY SNOW  15  10  80 N39G51    30.01R VSB 1/4 WCI  -8
STORM LAKE *   LGT SNOW  18  12  79 N36G46    30.00R WCI  -3
$$

IAZ055>058-069>071-079>083-090>094-081700-
   SOUTHWEST IOWA

CITY           SKY/WX    TMP DP  RH WIND       PRES   REMARKS
ATLANTIC *     LGT SNOW  21  16  79 N30G38    30.05R WCI   3
AUDUBON *        N/A     19  16  86 NW20G32   30.02R WCI   4
CLARINDA *     LGT SNOW  25  19  80 N23G30    30.07R WCI  10
COUNCIL BLFS * FLURRIES  25  18  74 N23G36    30.07R WCI  10
CRESTON *      CLOUDY    21  12  68 NW37G46   29.99S WCI   1
HARLAN  *      LGT SNOW  21  18  86 N25G36    30.08R WCI   4
LAMONI         FLURRIES  21  12  68 NW33G44   29.97R WCI   2
RED OAK *      LGT SNOW  23  19  86 N22       30.07R WCI   8
SHENANDOAH *   MIX PCPN  28  19  69 NW26G35   30.08R WCI  13
$$

IAZ047>049-059>061-072>074-084-081700-
   CENTRAL IOWA

CITY           SKY/WX    TMP DP  RH WIND       PRES   REMARKS
AMES           LGT SNOW  16   9  74 NW26G38   29.95R WCI  -3
ANKENY *       LGT SNOW  18  12  79 NW25G33   29.96R WCI  -1
BOONE *        LGT SNOW  14   9  79 NW24G36   29.94R VSB 3/4 WCI  -5
CHARITON *     LGT SNOW  19  10  68 NW25G35   29.94R WCI   2
DES MOINES     LGT SNOW  18  10  71 N28G38    29.96R VSB 3/4 WCI  -1
GRINNELL*      LGT SNOW  16  10  79 NW24      29.90R WCI  -3
KNOXVILLE *    CLOUDY    18   9  68 NW31G38   29.92R WCI  -2
MARSHALLTOWN   FLURRIES  14   8  77 NW23      29.90R WCI  -5
NEWTON *       LGT SNOW  16  10  79 NW28G35   29.92R WCI  -4
PELLA *        LGT SNOW  18  10  73 NW25G32   29.94R WCI  -1
$$

IAZ004>006-015-016-023>025-035-036-081700-
   NORTH CENTRAL IOWA

CITY           SKY/WX    TMP DP  RH WIND       PRES   REMARKS
ALGONA *       SNOW      14  10  85 NW39G51   29.93R VSB 1/2 WCI  -9
CLARION *      SNOW      12   7  79 NW31G44   29.92R VSB 1/4 WCI -10
ESTHERVILLE    FOG       12   8  84 N40G52    29.98R VSB 1/2 WCI -12
FORT DODGE *   CLOUDY    14   7  73 N20G29    29.98R WCI  -3
MASON CITY     CLOUDY    11   6  81 NW33G43   29.90R BLWGSNOWWCI -12
FOREST CITY *  CLOUDY    12   9  85 NW31      29.91R FOG     WCI -10
WEBSTER CITY * SNOW      14  10  85 NW38G46   29.93R VSB 1/4 WCI  -9
IOWA FALLS *   CLOUDY    14  10  83 NW26G40   29.91R WCI  -6
$$

IAZ007>011-017>019-026>030-037>042-050>054-066-081700-
   NORTHEAST IOWA

CITY           SKY/WX    TMP DP  RH WIND       PRES   REMARKS
CEDAR RAPIDS   FLURRIES  17  11  77 NW21G32   29.82R WCI   0
CHARLES CITY * CLOUDY    12   9  85 NW21G30   29.85R HAZE    WCI  -6
CLINTON *      FLURRIES  21  15  78 NW17      29.77R WCI   7
DECORAH *      CLOUDY    16   9  73 NW21G30   29.78R WCI  -2
DUBUQUE        CLOUDY    18  11  74 NW16G25   29.75R WCI   3
MONTICELLO *   FLURRIES  18  12  79 NW14G23   29.79S WCI   4
OELWEIN *      LGT SNOW  14  10  85 NW23G31   29.82R WCI  -5
WATERLOO       LGT SNOW  14   8  77 NW24G30   29.85R VSB 1   WCI  -5
$$

IAZ064-065-067-068-078-081700-
   EAST CENTRAL IOWA

CITY           SKY/WX    TMP DP  RH WIND       PRES   REMARKS
DAVENPORT      LGT SNOW  19  13  77 NW18G26   29.79R WCI   4
IOWA CITY      FLURRIES  18  10  71 NW20G30   29.86R WCI   2
MT. PLEASANT * LGT SNOW  21  14  73 NW16G26   29.86R WCI   7
MUSCATINE *    FLURRIES  19  12  73 NW18G26   29.85R WCI   4
QUAD CITIES    LGT SNOW  21  13  71 NW16G28   29.80R WCI   7
$$

IAZ062-063-075>077-085>089-095>099-081700-
   SOUTHEAST IOWA

CITY           SKY/WX    TMP DP  RH WIND       PRES   REMARKS
BURLINGTON     LGT SNOW  19  12  74 NW14G26   29.84R WCI   6
FAIRFIELD *    FLURRIES  18   9  68 NW22G32   29.87S WCI   0
FORT MADISON * FLURRIES  18  12  79 NW20G30   29.86R WCI   1
KEOKUK *       FLURRIES  19  12  73 NW12G22   29.87R WCI   7
OSKALOOSA *    LGT SNOW  16  12  86 NW30      29.90S WCI  -4
CENTERVILLE *    N/A    N/A N/A N/A MISG        N/A
OTTUMWA        LGT SNOW  16  11  80 NW28G33   29.90R WCI  -4
WASHINGTON *   CLOUDY    18  12  79 NW20G29   29.87R WCI   1
$$

ABBREVIATIONS USED IN REMARKS
   TC - TEMPERATURES IN CELSIUS
  WCI - WIND CHILL INDEX
   HX - HEAT INDEX
  VSB - VISIBILITY
$$




USA.gov is the U.S. government's official web portal to all federal, state and local government web resources and services.